Location: Bennemühlen
(52.5740°N, 9.7135°E)
Time: 11:45:27
(UTC+00:00)

A-11 Canister half - Pass Details

Date: 22 February 2026
Orbit: 1513 x 1686 km, 47.2° (Epoch: 17 March)

Event Time Altitude Azimuth Distance (km) Brightness Sun altitude
Rises 01:30:58 0° 286° (WNW) 4,900 - -41.6°
Reaches altitude 10° 01:34:33 10° 277° (W) 3,889 - -41.2°
Maximum altitude 01:42:53 32° 219° (SW) 2,481 - -40.4°
Drops below altitude 10° 01:50:59 10° 161° (SSE) 3,759 - -39.5°
Sets 01:54:24 0° 152° (SSE) 4,716 - -39.2°
